Time,TemperatureF,DewpointF,PressureIn,WindDirection,WindDirectionDegrees,WindSpeedMPH,WindSpeedGustMPH,Humidity,HourlyPrecipIn,Conditions,Clouds,dailyrainin,SoftwareType,DateUTC
2013-01-08 00:07:00,29.4,20.5,30.15,SSW,195,2.0,3.0,69,0.00,,,0.00,Wunderground v.1.15,2013-01-08 05:07:00,
2013-01-08 00:17:00,29.8,20.9,30.14,South,188,3.0,4.0,69,0.00,,,0.00,Wunderground v.1.15,2013-01-08 05:17:00,
2013-01-08 00:22:00,29.8,20.5,30.14,South,189,3.0,6.0,68,0.00,,,0.00,Wunderground v.1.15,2013-01-08 05:22:00,
2013-01-08 00:27:00,30.0,20.7,30.14,SSW,203,2.0,6.0,68,0.00,,,0.00,Wunderground v.1.15,2013-01-08 05:27:00,
2013-01-08 00:32:00,30.0,20.7,30.13,SSW,192,3.0,3.0,68,0.00,,,0.00,Wunderground v.1.15,2013-01-08 05:32:00,
2013-01-08 00:38:00,30.1,20.8,30.13,SSW,195,3.0,3.0,68,0.00,,,0.00,Wunderground v.1.15,2013-01-08 05:38:00,
2013-01-08 00:47:00,30.1,20.8,30.13,SSW,213,3.0,6.0,68,0.00,,,0.00,Wunderground v.1.15,2013-01-08 05:47:00,
2013-01-08 00:53:00,30.1,20.5,30.13,South,189,3.0,3.0,67,0.00,,,0.00,Wunderground v.1.15,2013-01-08 05:53:00,
2013-01-08 01:02:00,30.1,20.8,30.13,South,184,3.0,4.0,68,0.00,,,0.00,Wunderground v.1.15,2013-01-08 06:02:00,
2013-01-08 01:07:00,30.1,20.8,30.13,SSW,202,4.0,4.0,68,0.00,,,0.00,Wunderground v.1.15,2013-01-08 06:07:00,
2013-01-08 01:17:00,30.1,20.5,30.13,South,184,5.0,11.0,67,0.00,,,0.00,Wunderground v.1.15,2013-01-08 06:17:00,
2013-01-08 01:22:00,30.1,20.5,30.13,SSE,165,5.0,5.0,67,0.00,,,0.00,Wunderground v.1.15,2013-01-08 06:22:00,
2013-01-08 01:32:00,30.1,20.5,30.12,SSW,193,6.0,6.0,67,0.00,,,0.00,Wunderground v.1.15,2013-01-08 06:32:00,
2013-01-08 01:37:00,30.1,20.5,30.12,SSW,193,6.0,6.0,67,0.00,,,0.00,Wunderground v.1.15,2013-01-08 06:37:00,
2013-01-08 01:47:00,-999.9,-99.9,30.11,North,32767,-999.0,0.0,255,-99.99,,,0.00,Wunderground v.1.15,2013-01-08 06:47:00,
2013-01-08 01:52:00,-999.9,-99.9,30.11,North,32767,-999.0,0.0,255,-99.99,,,0.00,Wunderground v.1.15,2013-01-08 06:52:00,
2013-01-08 02:02:00,-999.9,-99.9,30.12,North,32767,-999.0,0.0,255,-99.99,,,0.00,Wunderground v.1.15,2013-01-08 07:02:00,
2013-01-08 02:07:00,-999.9,-99.9,30.12,North,32767,-999.0,0.0,255,-99.99,,,0.00,Wunderground v.1.15,2013-01-08 07:07:00,
2013-01-08 02:17:00,-999.9,-99.9,30.13,North,32767,-999.0,0.0,255,-99.99,,,0.00,Wunderground v.1.15,2013-01-08 07:17:00,
2013-01-08 02:23:00,-999.9,-99.9,30.13,North,32767,-999.0,0.0,255,-99.99,,,0.00,Wunderground v.1.15,2013-01-08 07:23:00,
2013-01-08 02:32:00,-999.9,-99.9,30.13,South,191,5.0,5.0,255,0.00,,,0.00,Wunderground v.1.15,2013-01-08 07:32:00,
2013-01-08 02:37:00,30.4,20.4,30.13,SSW,206,5.0,5.0,66,0.00,,,0.00,Wunderground v.1.15,2013-01-08 07:37:00,
2013-01-08 02:47:00,30.4,20.4,30.13,SSW,198,8.0,8.0,66,0.00,,,0.00,Wunderground v.1.15,2013-01-08 07:47:00,
2013-01-08 02:53:00,30.6,20.6,30.13,SSW,202,6.0,10.0,66,0.00,,,0.00,Wunderground v.1.15,2013-01-08 07:53:00,
2013-01-08 03:02:00,30.4,20.4,30.13,SW,233,4.0,4.0,66,0.00,,,0.00,Wunderground v.1.15,2013-01-08 08:02:00,
2013-01-08 03:07:00,30.4,20.4,30.13,SSW,212,5.0,6.0,66,0.00,,,0.00,Wunderground v.1.15,2013-01-08 08:07:00,
2013-01-08 03:12:00,30.4,20.4,30.13,SSW,212,6.0,6.0,66,0.00,,,0.00,Wunderground v.1.15,2013-01-08 08:12:00,
2013-01-08 03:22:00,-999.9,-99.9,30.13,North,32767,-999.0,0.0,255,-99.99,,,0.00,Wunderground v.1.15,2013-01-08 08:22:00,
2013-01-08 03:32:00,-999.9,-99.9,30.12,North,32767,-999.0,0.0,255,-99.99,,,0.00,Wunderground v.1.15,2013-01-08 08:32:00,
2013-01-08 03:37:00,-999.9,-99.9,30.12,North,32767,-999.0,0.0,255,-99.99,,,0.00,Wunderground v.1.15,2013-01-08 08:37:00,
2013-01-08 03:47:00,-999.9,-99.9,30.12,North,32767,-999.0,0.0,255,-99.99,,,0.00,Wunderground v.1.15,2013-01-08 08:47:00,
2013-01-08 03:52:00,30.1,-99.9,30.12,SSW,193,6.0,6.0,255,0.00,,,0.00,Wunderground v.1.15,2013-01-08 08:52:00,
2013-01-08 04:02:00,30.1,19.4,30.13,SSW,199,4.0,4.0,64,0.00,,,0.00,Wunderground v.1.15,2013-01-08 09:02:00,
2013-01-08 04:07:00,30.1,19.4,30.13,South,191,3.0,4.0,64,0.00,,,0.00,Wunderground v.1.15,2013-01-08 09:07:00,
2013-01-08 04:17:00,30.1,19.4,30.14,South,191,2.0,3.0,64,0.00,,,0.00,Wunderground v.1.15,2013-01-08 09:17:00,
2013-01-08 04:22:00,-999.9,-99.9,30.14,North,32767,-999.0,0.0,255,-99.99,,,0.00,Wunderground v.1.15,2013-01-08 09:22:00,
2013-01-08 04:32:00,-999.9,-99.9,30.14,North,32767,-999.0,0.0,255,-99.99,,,0.00,Wunderground v.1.15,2013-01-08 09:32:00,
2013-01-08 04:37:00,-999.9,-99.9,30.14,North,32767,-999.0,0.0,255,-99.99,,,0.00,Wunderground v.1.15,2013-01-08 09:37:00,
2013-01-08 04:47:00,-999.9,-99.9,30.14,North,32767,-999.0,0.0,255,-99.99,,,0.00,Wunderground v.1.15,2013-01-08 09:47:00,
2013-01-08 04:52:00,29.5,-99.9,30.14,South,191,2.0,2.0,255,0.00,,,0.00,Wunderground v.1.15,2013-01-08 09:52:00,
2013-01-08 05:02:00,29.4,19.1,30.14,SSW,192,3.0,3.0,65,0.00,,,0.00,Wunderground v.1.15,2013-01-08 10:02:00,
2013-01-08 05:07:00,29.4,19.1,30.14,SSW,193,2.0,5.0,65,0.00,,,0.00,Wunderground v.1.15,2013-01-08 10:07:00,
2013-01-08 05:12:00,29.4,19.1,30.14,SSW,193,5.0,5.0,65,0.00,,,0.00,Wunderground v.1.15,2013-01-08 10:12:00,
2013-01-08 05:22:00,-999.9,-99.9,30.14,North,32767,-999.0,0.0,255,-99.99,,,0.00,Wunderground v.1.15,2013-01-08 10:22:00,
2013-01-08 05:32:00,-999.9,-99.9,30.15,North,32767,-999.0,0.0,255,-99.99,,,0.00,Wunderground v.1.15,2013-01-08 10:32:00,
2013-01-08 05:37:00,29.1,18.4,30.15,SSW,199,0.0,0.0,64,0.00,,,0.00,Wunderground v.1.15,2013-01-08 10:37:00,
2013-01-08 05:47:00,29.0,18.3,30.15,SSW,199,1.0,2.0,64,0.00,,,0.00,Wunderground v.1.15,2013-01-08 10:47:00,
2013-01-08 05:53:00,29.0,18.7,30.15,SSW,195,2.0,5.0,65,0.00,,,0.00,Wunderground v.1.15,2013-01-08 10:53:00,
2013-01-08 06:02:00,29.0,18.7,30.16,SSW,205,2.0,2.0,65,0.00,,,0.00,Wunderground v.1.15,2013-01-08 11:02:00,
2013-01-08 06:07:00,28.8,18.5,30.16,South,189,1.0,3.0,65,0.00,,,0.00,Wunderground v.1.15,2013-01-08 11:07:00,
2013-01-08 06:17:00,28.8,18.5,30.16,SSW,202,2.0,6.0,65,0.00,,,0.00,Wunderground v.1.15,2013-01-08 11:17:00,
2013-01-08 06:22:00,28.8,18.5,30.16,South,191,2.0,3.0,65,0.00,,,0.00,Wunderground v.1.15,2013-01-08 11:22:00,
2013-01-08 06:32:00,29.0,18.3,30.17,SSW,209,2.0,2.0,64,0.00,,,0.00,Wunderground v.1.15,2013-01-08 11:32:00,
2013-01-08 06:37:00,29.0,18.3,30.17,SSW,202,2.0,2.0,64,0.00,,,0.00,Wunderground v.1.15,2013-01-08 11:37:00,
2013-01-08 06:47:00,29.0,18.3,30.18,SSW,203,3.0,3.0,64,0.00,,,0.00,Wunderground v.1.15,2013-01-08 11:47:00,
2013-01-08 06:52:00,29.0,18.3,30.18,SW,232,3.0,3.0,64,0.00,,,0.00,Wunderground v.1.15,2013-01-08 11:52:00,
2013-01-08 07:02:00,29.0,18.3,30.18,WSW,237,3.0,6.0,64,0.00,,,0.00,Wunderground v.1.15,2013-01-08 12:02:00,
2013-01-08 07:07:00,29.0,18.3,30.18,SSW,210,3.0,6.0,64,0.00,,,0.00,Wunderground v.1.15,2013-01-08 12:07:00,
2013-01-08 07:17:00,29.0,18.3,30.18,SSW,195,3.0,4.0,64,0.00,,,0.00,Wunderground v.1.15,2013-01-08 12:17:00,
2013-01-08 07:23:00,29.0,18.3,30.18,SSW,200,2.0,2.0,64,0.00,,,0.00,Wunderground v.1.15,2013-01-08 12:23:00,
2013-01-08 07:32:00,29.0,18.3,30.19,SSW,205,3.0,5.0,64,0.00,,,0.00,Wunderground v.1.15,2013-01-08 12:32:00,
2013-01-08 07:37:00,29.0,18.3,30.19,SSW,208,2.0,3.0,64,0.00,,,0.00,Wunderground v.1.15,2013-01-08 12:37:00,
2013-01-08 07:47:00,29.0,18.3,30.19,SSW,208,2.0,2.0,64,0.00,,,0.00,Wunderground v.1.15,2013-01-08 12:47:00,
2013-01-08 07:52:00,29.0,18.3,30.19,SSW,208,2.0,2.0,64,0.00,,,0.00,Wunderground v.1.15,2013-01-08 12:52:00,
2013-01-08 08:02:00,29.1,18.4,30.20,South,186,2.0,7.0,64,0.00,,,0.00,Wunderground v.1.15,2013-01-08 13:02:00,
2013-01-08 08:07:00,29.1,18.4,30.20,South,186,2.0,7.0,64,0.00,,,0.00,Wunderground v.1.15,2013-01-08 13:07:00,
2013-01-08 08:17:00,29.4,18.3,30.20,South,188,1.0,2.0,63,0.00,,,0.00,Wunderground v.1.15,2013-01-08 13:17:00,
2013-01-08 08:22:00,29.5,18.4,30.20,South,188,1.0,1.0,63,0.00,,,0.00,Wunderground v.1.15,2013-01-08 13:22:00,
2013-01-08 08:32:00,30.0,18.5,30.21,South,188,1.0,1.0,62,0.00,,,0.00,Wunderground v.1.15,2013-01-08 13:32:00,
2013-01-08 08:37:00,30.0,18.5,30.21,South,188,1.0,1.0,62,0.00,,,0.00,Wunderground v.1.15,2013-01-08 13:37:00,
2013-01-08 08:47:00,30.1,18.3,30.21,South,189,2.0,2.0,61,0.00,,,0.00,Wunderground v.1.15,2013-01-08 13:47:00,
2013-01-08 08:52:00,30.4,18.5,30.21,South,189,2.0,2.0,61,0.00,,,0.00,Wunderground v.1.15,2013-01-08 13:52:00,
2013-01-08 09:02:00,30.6,18.7,30.22,South,189,1.0,2.0,61,0.00,,,0.00,Wunderground v.1.15,2013-01-08 14:02:00,
2013-01-08 09:07:00,30.6,18.7,30.22,South,189,1.0,2.0,61,0.00,,,0.00,Wunderground v.1.15,2013-01-08 14:07:00,
2013-01-08 09:12:00,30.9,19.0,30.22,SW,223,2.0,2.0,61,0.00,,,0.00,Wunderground v.1.15,2013-01-08 14:12:00,
2013-01-08 09:22:00,30.9,19.0,30.22,SSW,213,0.0,0.0,61,0.00,,,0.00,Wunderground v.1.15,2013-01-08 14:22:00,
2013-01-08 09:32:00,31.3,19.4,30.23,SW,215,2.0,3.0,61,0.00,,,0.00,Wunderground v.1.15,2013-01-08 14:32:00,
2013-01-08 09:37:00,31.6,19.3,30.23,SW,215,2.0,5.0,60,0.00,,,0.00,Wunderground v.1.15,2013-01-08 14:37:00,
2013-01-08 09:47:00,32.1,19.8,30.23,SSW,203,3.0,3.0,60,0.00,,,0.00,Wunderground v.1.15,2013-01-08 14:47:00,
2013-01-08 09:52:00,32.5,20.1,30.23,SSW,203,3.0,3.0,60,0.00,,,0.00,Wunderground v.1.15,2013-01-08 14:52:00,
2013-01-08 10:02:00,32.9,20.1,30.23,South,172,2.0,2.0,59,0.00,,,0.00,Wunderground v.1.15,2013-01-08 15:02:00,
2013-01-08 10:07:00,33.2,20.4,30.23,SSW,195,2.0,2.0,59,0.00,,,0.00,Wunderground v.1.15,2013-01-08 15:07:00,
2013-01-08 10:17:00,34.0,20.8,30.23,SSW,198,2.0,3.0,58,0.00,,,0.00,Wunderground v.1.15,2013-01-08 15:17:00,
2013-01-08 10:22:00,34.3,20.6,30.23,South,184,3.0,3.0,57,0.00,,,0.00,Wunderground v.1.15,2013-01-08 15:22:00,
2013-01-08 10:32:00,34.9,20.8,30.23,South,185,3.0,3.0,56,0.00,,,0.00,Wunderground v.1.15,2013-01-08 15:32:00,
2013-01-08 10:37:00,34.9,21.2,30.23,South,185,3.0,3.0,57,0.00,,,0.00,Wunderground v.1.15,2013-01-08 15:37:00,
2013-01-08 10:47:00,35.0,21.3,30.23,SW,234,3.0,3.0,57,0.00,,,0.00,Wunderground v.1.15,2013-01-08 15:47:00,
2013-01-08 10:52:00,35.2,21.5,30.23,SW,234,2.0,2.0,57,0.00,,,0.00,Wunderground v.1.15,2013-01-08 15:52:00,
2013-01-08 11:02:00,35.8,22.0,30.23,SW,233,1.0,2.0,57,0.00,,,0.00,Wunderground v.1.15,2013-01-08 16:02:00,
2013-01-08 11:07:00,35.9,22.5,30.23,SW,230,1.0,6.0,58,0.00,,,0.00,Wunderground v.1.15,2013-01-08 16:07:00,
2013-01-08 11:17:00,36.0,22.2,30.23,SW,230,1.0,2.0,57,0.00,,,0.00,Wunderground v.1.15,2013-01-08 16:17:00,
2013-01-08 11:22:00,36.5,22.7,30.23,SW,230,1.0,1.0,57,0.00,,,0.00,Wunderground v.1.15,2013-01-08 16:22:00,
2013-01-08 11:32:00,36.9,23.1,30.23,SW,230,0.0,0.0,57,0.00,,,0.00,Wunderground v.1.15,2013-01-08 16:32:00,
2013-01-08 11:38:00,37.2,22.9,30.23,WSW,239,0.0,0.0,56,0.00,,,0.00,Wunderground v.1.15,2013-01-08 16:38:00,
2013-01-08 11:47:00,37.5,23.6,30.23,SSW,202,1.0,1.0,57,0.00,,,0.00,Wunderground v.1.15,2013-01-08 16:47:00,
2013-01-08 11:53:00,37.8,23.9,30.23,SSW,202,1.0,1.0,57,0.00,,,0.00,Wunderground v.1.15,2013-01-08 16:53:00,
2013-01-08 12:02:00,38.2,24.3,30.23,SSW,213,1.0,1.0,57,0.00,,,0.00,Wunderground v.1.15,2013-01-08 17:02:00,
2013-01-08 12:08:00,38.6,24.2,30.23,SSW,213,1.0,1.0,56,0.00,,,0.00,Wunderground v.1.15,2013-01-08 17:08:00,
2013-01-08 12:17:00,39.6,24.7,30.23,SSW,213,0.0,7.0,55,0.00,,,0.00,Wunderground v.1.15,2013-01-08 17:17:00,
2013-01-08 12:23:00,39.3,24.5,30.23,SW,223,1.0,1.0,55,0.00,,,0.00,Wunderground v.1.15,2013-01-08 17:23:00,
2013-01-08 12:32:00,38.9,24.5,30.22,SW,220,2.0,2.0,56,0.00,,,0.00,Wunderground v.1.15,2013-01-08 17:32:00,
2013-01-08 12:37:00,38.9,24.9,30.22,SSW,199,2.0,2.0,57,0.00,,,0.00,Wunderground v.1.15,2013-01-08 17:37:00,
2013-01-08 12:47:00,38.8,24.9,30.23,West,264,1.0,1.0,57,0.00,,,0.00,Wunderground v.1.15,2013-01-08 17:47:00,
2013-01-08 12:53:00,38.9,24.9,30.23,West,264,0.0,1.0,57,0.00,,,0.00,Wunderground v.1.15,2013-01-08 17:53:00,
2013-01-08 13:02:00,39.2,24.8,30.23,West,264,0.0,0.0,56,0.00,,,0.00,Wunderground v.1.15,2013-01-08 18:02:00,
2013-01-08 13:08:00,39.6,25.6,30.23,West,264,0.0,0.0,57,0.00,,,0.00,Wunderground v.1.15,2013-01-08 18:08:00,
2013-01-08 13:17:00,40.3,25.4,30.22,WNW,282,0.0,0.0,55,0.00,,,0.00,Wunderground v.1.15,2013-01-08 18:17:00,
2013-01-08 13:22:00,40.6,25.7,30.22,WNW,282,0.0,0.0,55,0.00,,,0.00,Wunderground v.1.15,2013-01-08 18:22:00,
2013-01-08 13:32:00,40.6,25.7,30.22,WNW,282,0.0,0.0,55,0.00,,,0.00,Wunderground v.1.15,2013-01-08 18:32:00,
2013-01-08 13:37:00,40.9,25.5,30.22,South,188,0.0,0.0,54,0.00,,,0.00,Wunderground v.1.15,2013-01-08 18:37:00,
2013-01-08 13:47:00,41.2,25.3,30.22,South,189,0.0,0.0,53,0.00,,,0.00,Wunderground v.1.15,2013-01-08 18:47:00,
2013-01-08 13:52:00,41.1,25.7,30.22,South,189,0.0,0.0,54,0.00,,,0.00,Wunderground v.1.15,2013-01-08 18:52:00,
2013-01-08 14:02:00,40.8,25.4,30.22,SW,229,0.0,1.0,54,0.00,,,0.00,Wunderground v.1.15,2013-01-08 19:02:00,
2013-01-08 14:07:00,40.3,25.4,30.22,SSW,195,1.0,1.0,55,0.00,,,0.00,Wunderground v.1.15,2013-01-08 19:07:00,
2013-01-08 14:17:00,39.9,25.5,30.22,SSW,192,2.0,3.0,56,0.00,,,0.00,Wunderground v.1.15,2013-01-08 19:17:00,
2013-01-08 14:22:00,39.9,25.5,30.22,SSW,193,2.0,2.0,56,0.00,,,0.00,Wunderground v.1.15,2013-01-08 19:22:00,
2013-01-08 14:32:00,40.1,25.6,30.23,SSW,193,1.0,1.0,56,0.00,,,0.00,Wunderground v.1.15,2013-01-08 19:32:00,
2013-01-08 14:37:00,40.2,25.7,30.23,SSW,193,0.0,1.0,56,0.00,,,0.00,Wunderground v.1.15,2013-01-08 19:37:00,
2013-01-08 14:47:00,40.1,25.2,30.23,SW,224,0.0,0.0,55,0.00,,,0.00,Wunderground v.1.15,2013-01-08 19:47:00,
2013-01-08 14:52:00,40.2,25.7,30.23,SW,224,0.0,2.0,56,0.00,,,0.00,Wunderground v.1.15,2013-01-08 19:52:00,
2013-01-08 15:02:00,40.1,25.6,30.24,SW,224,0.0,0.0,56,0.00,,,0.00,Wunderground v.1.15,2013-01-08 20:02:00,
2013-01-08 15:07:00,40.2,25.7,30.24,SW,224,0.0,0.0,56,0.00,,,0.00,Wunderground v.1.15,2013-01-08 20:07:00,
2013-01-08 15:17:00,39.9,25.0,30.24,SW,224,0.0,0.0,55,0.00,,,0.00,Wunderground v.1.15,2013-01-08 20:17:00,
2013-01-08 15:22:00,39.8,25.4,30.24,SW,224,0.0,0.0,56,0.00,,,0.00,Wunderground v.1.15,2013-01-08 20:22:00,
2013-01-08 15:32:00,39.8,25.4,30.25,SW,224,0.0,0.0,56,0.00,,,0.00,Wunderground v.1.15,2013-01-08 20:32:00,
2013-01-08 15:37:00,39.6,25.2,30.25,SW,224,0.0,0.0,56,0.00,,,0.00,Wunderground v.1.15,2013-01-08 20:37:00,
2013-01-08 15:47:00,39.3,25.3,30.26,SW,224,0.0,0.0,57,0.00,,,0.00,Wunderground v.1.15,2013-01-08 20:47:00,
2013-01-08 15:52:00,39.3,25.3,30.26,SW,224,0.0,0.0,57,0.00,,,0.00,Wunderground v.1.15,2013-01-08 20:52:00,
2013-01-08 16:02:00,39.5,25.5,30.26,SW,224,0.0,0.0,57,0.00,,,0.00,Wunderground v.1.15,2013-01-08 21:02:00,
2013-01-08 16:12:00,39.6,25.6,30.26,SW,224,0.0,0.0,57,0.00,,,0.00,Wunderground v.1.15,2013-01-08 21:12:00,
2013-01-08 16:22:00,39.1,26.0,30.26,SW,224,0.0,0.0,59,0.00,,,0.00,Wunderground v.1.15,2013-01-08 21:22:00,
2013-01-08 16:32:00,39.1,25.1,30.26,SW,224,0.0,0.0,57,0.00,,,0.00,Wunderground v.1.15,2013-01-08 21:32:00,
2013-01-08 16:37:00,39.1,25.1,30.26,SW,224,0.0,0.0,57,0.00,,,0.00,Wunderground v.1.15,2013-01-08 21:37:00,
2013-01-08 16:47:00,38.8,25.3,30.26,SW,224,0.0,0.0,58,0.00,,,0.00,Wunderground v.1.15,2013-01-08 21:47:00,
2013-01-08 16:52:00,38.3,25.2,30.26,SW,224,0.0,0.0,59,0.00,,,0.00,Wunderground v.1.15,2013-01-08 21:52:00,
2013-01-08 17:02:00,37.6,25.0,30.27,SW,224,0.0,0.0,60,0.00,,,0.00,Wunderground v.1.15,2013-01-08 22:02:00,
2013-01-08 17:07:00,37.2,25.4,30.27,SW,224,0.0,0.0,62,0.00,,,0.00,Wunderground v.1.15,2013-01-08 22:07:00,
2013-01-08 17:17:00,36.5,25.5,30.27,SW,224,0.0,0.0,64,0.00,,,0.00,Wunderground v.1.15,2013-01-08 22:17:00,
2013-01-08 17:22:00,36.0,24.6,30.27,SW,224,0.0,0.0,63,0.00,,,0.00,Wunderground v.1.15,2013-01-08 22:22:00,
2013-01-08 17:32:00,35.8,24.4,30.28,SW,224,0.0,0.0,63,0.00,,,0.00,Wunderground v.1.15,2013-01-08 22:32:00,
2013-01-08 17:37:00,35.8,24.4,30.28,SW,224,0.0,0.0,63,0.00,,,0.00,Wunderground v.1.15,2013-01-08 22:37:00,
2013-01-08 17:47:00,35.0,24.8,30.28,SW,224,0.0,0.0,66,0.00,,,0.00,Wunderground v.1.15,2013-01-08 22:47:00,
2013-01-08 17:52:00,34.9,24.7,30.28,SW,224,0.0,0.0,66,0.00,,,0.00,Wunderground v.1.15,2013-01-08 22:52:00,
2013-01-08 18:02:00,34.3,24.1,30.28,SW,224,0.0,0.0,66,0.00,,,0.00,Wunderground v.1.15,2013-01-08 23:02:00,
2013-01-08 18:12:00,34.3,24.1,30.28,SW,224,0.0,0.0,66,0.00,,,0.00,Wunderground v.1.15,2013-01-08 23:12:00,
2013-01-08 18:22:00,33.7,23.5,30.28,SW,224,0.0,0.0,66,0.00,,,0.00,Wunderground v.1.15,2013-01-08 23:22:00,
2013-01-08 18:32:00,33.1,24.4,30.28,SW,224,0.0,0.0,70,0.00,,,0.00,Wunderground v.1.15,2013-01-08 23:32:00,
2013-01-08 18:38:00,33.1,24.4,30.28,SW,224,0.0,0.0,70,0.00,,,0.00,Wunderground v.1.15,2013-01-08 23:38:00,
2013-01-08 18:47:00,33.1,24.4,30.28,SW,224,0.0,0.0,70,0.00,,,0.00,Wunderground v.1.15,2013-01-08 23:47:00,
2013-01-08 18:52:00,32.5,23.8,30.28,SW,224,0.0,0.0,70,0.00,,,0.00,Wunderground v.1.15,2013-01-08 23:52:00,
2013-01-08 19:02:00,32.4,24.4,30.28,SW,224,0.0,0.0,72,0.00,,,0.00,Wunderground v.1.15,2013-01-09 00:02:00,
2013-01-08 19:07:00,32.5,24.5,30.28,SW,224,0.0,0.0,72,0.00,,,0.00,Wunderground v.1.15,2013-01-09 00:07:00,
2013-01-08 19:12:00,32.5,24.8,30.28,SW,224,0.0,0.0,73,0.00,,,0.00,Wunderground v.1.15,2013-01-09 00:12:00,
2013-01-08 19:22:00,32.4,24.7,30.28,SW,224,0.0,0.0,73,0.00,,,0.00,Wunderground v.1.15,2013-01-09 00:22:00,
2013-01-08 19:32:00,31.9,24.2,30.28,SW,224,0.0,0.0,73,0.00,,,0.00,Wunderground v.1.15,2013-01-09 00:32:00,
2013-01-08 19:37:00,31.3,24.3,30.28,SW,224,0.0,0.0,75,0.00,,,0.00,Wunderground v.1.15,2013-01-09 00:37:00,
2013-01-08 19:47:00,31.0,24.0,30.29,SW,224,0.0,0.0,75,0.00,,,0.00,Wunderground v.1.15,2013-01-09 00:47:00,
2013-01-08 19:52:00,31.0,24.3,30.29,SW,224,0.0,0.0,76,0.00,,,0.00,Wunderground v.1.15,2013-01-09 00:52:00,
2013-01-08 20:02:00,30.9,24.2,30.28,SW,224,0.0,0.0,76,0.00,,,0.00,Wunderground v.1.15,2013-01-09 01:02:00,
2013-01-08 20:07:00,30.7,24.3,30.28,SW,224,0.0,0.0,77,0.00,,,0.00,Wunderground v.1.15,2013-01-09 01:07:00,
2013-01-08 20:17:00,30.6,24.2,30.28,SW,224,0.0,0.0,77,0.00,,,0.00,Wunderground v.1.15,2013-01-09 01:17:00,
2013-01-08 20:22:00,30.4,24.4,30.28,SW,224,0.0,0.0,78,0.00,,,0.00,Wunderground v.1.15,2013-01-09 01:22:00,
2013-01-08 20:32:00,30.4,24.4,30.28,SW,224,0.0,0.0,78,0.00,,,0.00,Wunderground v.1.15,2013-01-09 01:32:00,
2013-01-08 20:37:00,30.6,24.6,30.28,SW,224,0.0,0.0,78,0.00,,,0.00,Wunderground v.1.15,2013-01-09 01:37:00,
2013-01-08 20:47:00,31.0,24.9,30.28,SW,224,0.0,0.0,78,0.00,,,0.00,Wunderground v.1.15,2013-01-09 01:47:00,
2013-01-08 20:52:00,31.0,24.9,30.28,SW,224,0.0,0.0,78,0.00,,,0.00,Wunderground v.1.15,2013-01-09 01:52:00,
2013-01-08 21:02:00,30.9,24.5,30.27,SW,224,0.0,0.0,77,0.00,,,0.00,Wunderground v.1.15,2013-01-09 02:02:00,
2013-01-08 21:07:00,30.7,24.7,30.27,SW,224,0.0,0.0,78,0.00,,,0.00,Wunderground v.1.15,2013-01-09 02:07:00,
2013-01-08 21:17:00,30.9,24.8,30.26,SW,224,0.0,0.0,78,0.00,,,0.00,Wunderground v.1.15,2013-01-09 02:17:00,
2013-01-08 21:23:00,30.9,24.8,30.26,SW,224,0.0,0.0,78,0.00,,,0.00,Wunderground v.1.15,2013-01-09 02:23:00,
2013-01-08 21:32:00,30.9,24.8,30.26,SW,224,0.0,0.0,78,0.00,,,0.00,Wunderground v.1.15,2013-01-09 02:32:00,
2013-01-08 21:37:00,30.9,24.8,30.26,SW,224,0.0,0.0,78,0.00,,,0.00,Wunderground v.1.15,2013-01-09 02:37:00,
2013-01-08 21:47:00,30.9,24.8,30.26,SW,224,0.0,0.0,78,0.00,,,0.00,Wunderground v.1.15,2013-01-09 02:47:00,
2013-01-08 21:52:00,31.0,24.6,30.26,SW,224,0.0,0.0,77,0.00,,,0.00,Wunderground v.1.15,2013-01-09 02:52:00,
2013-01-08 22:02:00,31.0,24.6,30.26,SW,224,0.0,0.0,77,0.00,,,0.00,Wunderground v.1.15,2013-01-09 03:02:00,
2013-01-08 22:12:00,30.6,24.2,30.26,SW,224,0.0,0.0,77,0.00,,,0.00,Wunderground v.1.15,2013-01-09 03:12:00,
2013-01-08 22:22:00,30.6,24.2,30.27,SW,224,0.0,0.0,77,0.00,,,0.00,Wunderground v.1.15,2013-01-09 03:22:00,
2013-01-08 22:32:00,30.6,23.9,30.27,SW,224,0.0,0.0,76,0.00,,,0.00,Wunderground v.1.15,2013-01-09 03:32:00,
2013-01-08 22:37:00,30.6,23.9,30.27,SW,224,0.0,0.0,76,0.00,,,0.00,Wunderground v.1.15,2013-01-09 03:37:00,
2013-01-08 22:47:00,30.7,23.4,30.27,SW,224,0.0,0.0,74,0.00,,,0.00,Wunderground v.1.15,2013-01-09 03:47:00,
2013-01-08 22:53:00,31.0,23.4,30.27,SW,224,0.0,3.0,73,0.00,,,0.00,Wunderground v.1.15,2013-01-09 03:53:00,
2013-01-08 23:02:00,31.5,22.5,30.26,SW,224,1.0,1.0,69,0.00,,,0.00,Wunderground v.1.15,2013-01-09 04:02:00,
2013-01-08 23:08:00,31.5,22.1,30.26,SW,215,1.0,1.0,68,0.00,,,0.00,Wunderground v.1.15,2013-01-09 04:08:00,
2013-01-08 23:17:00,31.8,22.1,30.25,SW,215,1.0,1.0,67,0.00,,,0.00,Wunderground v.1.15,2013-01-09 04:17:00,
2013-01-08 23:22:00,31.9,22.2,30.25,SW,215,1.0,1.0,67,0.00,,,0.00,Wunderground v.1.15,2013-01-09 04:22:00,
2013-01-08 23:32:00,32.4,21.9,30.25,SW,215,1.0,3.0,65,0.00,,,0.00,Wunderground v.1.15,2013-01-09 04:32:00,
2013-01-08 23:37:00,32.5,21.7,30.25,SW,215,1.0,3.0,64,0.00,,,0.00,Wunderground v.1.15,2013-01-09 04:37:00,
2013-01-08 23:47:00,32.7,21.9,30.24,SW,215,1.0,1.0,64,0.00,,,0.00,Wunderground v.1.15,2013-01-09 04:47:00,
2013-01-08 23:52:00,32.5,21.7,30.24,SW,215,1.0,2.0,64,0.00,,,0.00,Wunderground v.1.15,2013-01-09 04:52:00,